GRAW Z P H U
GRAW Z P H U's Shipments Over Time
Supply Ratings
Shipment Reliability and Frequency Volume of Goods
Avg. Shipments per Month: 2.38 Average TEU per month: 3.88
Active Months: 11 Average TEU per Shipment: 1.50
Shipment Frequency Std. Dev.: 1.76
Shipments By Companies
Company Name Shipments
BWI NORTH AMERICA C/O INTERLOAD FOR 40 shipments
BWI NORTH AMERICA EL PASO 9 shipments
BWI INDIANA INC 5 shipments
BWI NORTH AMERICA INC 5 shipments
Shipments By HS Code
HS Code Shipments
841590 Air conditioning machines; with motor driven fan and elements for temperature control, parts thereof 35 shipments
841590.0 Air conditioning machines; comprising a motor driven fan and elements for changing the temperature and humidity, including those machines in which the humidity cannot be separately regulated 18 shipments
840999 Engines; parts for internal combustion piston engines (excluding spark-ignition) 3 shipments
391590.0 Waste, parings and scrap, of plastics 1 shipments
841520.0 Air conditioning machines; comprising a motor driven fan and elements for changing the temperature and humidity, including those machines in which the humidity cannot be separately regulated 1 shipments
911390 Watch straps, watch bands, watch bracelets, and parts thereof; n.e.c. in heading no. 9113 1 shipments
to show market analysis.
Similar Suppliers
to see more.
Latest Shipments
Arrival Date Bill Of Lading Consignee Weight HS Code Description
2026-07-25 GOLESNTG26047187 BWI NORTH AMERICA INC 121.0 kg 841590 AUTOMOTIVE CHASSIS SYSTEM COMPONENT
2026-07-25 GOLESNTG26049226 BWI NORTH AMERICA C/O INTERLOAD FOR 121.0 kg 841590 AUTOMOTIVE CHASSIS SYSTEM COMPONENT
2026-07-12 GOLESNTG26044580 BWI NORTH AMERICA C/O INTERLOAD FOR 121.0 kg 841590 AUTOMOTIVE PARTS
2026-06-14 GOLESNTG26034961 BWI NORTH AMERICA C/O INTERLOAD FOR 226.0 kg 841590 AUTOMOTIVE CHASSIS SYSTEM COMPONENT
2026-05-31 GOLESNTG26030761 BWI NORTH AMERICA C/O INTERLOAD FOR 226.0 kg 841590 AUTOMOTIVE CHASSIS SYSTEM COMPONENT
2026-05-17 GOLESNTG26025912 BWI NORTH AMERICA C/O INTERLOAD FOR 226.0 kg 841590 AUTOMOTIVE CHASSIS SYSTEM COMPONENT
2026-05-02 GOLESNTG26020685 BWI NORTH AMERICA INC 105.0 kg 841590 AUTOMOTIVE PARTS
2026-05-02 GOLESNTG26021819 BWI NORTH AMERICA C/O INTERLOAD FOR 121.0 kg 841590 AUTOMOTIVE CHASSIS SYSTEM COMPONENT
2026-05-02 GOLESNTG26022658 BWI NORTH AMERICA C/O INTERLOAD FOR 105.0 kg 841590 AUTOMOTIVE CHASSIS SYSTEM COMPONENT
2026-04-24 GOLESNTG26016749 BWI NORTH AMERICA C/O INTERLOAD FOR 210.0 kg 841590.0 AUTOMOTIVE PARTS
2026-04-24 GOLESNTG26018420 BWI NORTH AMERICA C/O INTERLOAD FOR 258.0 kg 841590.0 AUTOMOTIVE CHASSIS SYSTEM COMPONENT AUTOMOTIVE CHASSIS SYSTEM COMPONENT
2026-03-25 GOLESNTG26011118 BWI NORTH AMERICA C/O INTERLOAD FOR 105.0 kg 841590.0 AUTOMOTIVE PARTS
2026-03-22 GOLESNTG26009167 BWI NORTH AMERICA C/O INTERLOAD FOR 121.0 kg 841590.0 AUTOMOTIVE PARTS
2026-03-22 GOLESNTG26014697 BWI NORTH AMERICA C/O INTERLOAD FOR 226.0 kg 841590.0 AUTOMOTIVE PARTS
2026-03-11 GOLESNTG26006630 BWI NORTH AMERICA C/O INTERLOAD FOR 105.0 kg 841590.0 AUTOMOTIVE PARTS
2026-03-04 GOLESNTG25099863 BWI NORTH AMERICA C/O INTERLOAD FOR 331.0 kg 841520.0 AUTOMOTIVE BANDS
2026-03-04 GOLESNTG26002925 BWI NORTH AMERICA C/O INTERLOAD FOR 226.0 kg 841590.0 AUTOMOTIVE PARTS
2026-01-13 GOLESNTG25097184 BWI NORTH AMERICA C/O INTERLOAD FOR 210.0 kg 841590.0 AUTOMOTIVE PARTS
2026-01-08 GOLESNTG25091920 BWI NORTH AMERICA C/O INTERLOAD FOR 210.0 kg 391590.0 HEAT WELDED PET BANDS
2025-12-04 GOLESNTG25087242 BWI NORTH AMERICA C/O INTERLOAD FOR 226.0 kg 841590.0 AUTOMOTIVE PARTS
2025-12-04 GOLESNTG25083096 BWI NORTH AMERICA C/O INTERLOAD FOR 226.0 kg 841590.0 AUTOMOTIVE PARTS
2025-11-16 GOLESNTG25079064 BWI NORTH AMERICA C/O INTERLOAD FOR 210.0 kg 841590.0 AUTOMOTIVE PARTS
2025-11-01 GOLESNTG25073723 BWI NORTH AMERICA C/O INTERLOAD FOR 226.0 kg 841590.0 AUTOMOTIVE PARTS
2025-10-24 GOLESNTG25070370 BWI NORTH AMERICA C/O INTERLOAD FOR 210.0 kg 841590.0 AUTOMOTIVE PARTS
2025-10-13 GOLESNTG25068366 BWI NORTH AMERICA C/O INTERLOAD FOR 226.0 kg 841590.0 AUTOMOTIVE PARTS
2025-09-22 GOLESNTG25063219 BWI NORTH AMERICA C/O INTERLOAD FOR 315.0 kg 841590.0 AUTOMOTIVE PARTS
2025-09-09 GOLESNTG25059425 BWI NORTH AMERICA C/O INTERLOAD FOR 210.0 kg 841590.0 AUTOMOTIVE PARTS
2025-08-31 GOLESNTG25056608 BWI NORTH AMERICA C/O INTERLOAD FOR 210.0 kg 841590.0 AUTOMOTIVE PARTS
2025-08-25 GOLESNTG25054161 BWI NORTH AMERICA C/O INTERLOAD FOR 210.0 kg 841590.0 AUTOMOTIVE PARTS
2025-08-07 GOLESNTG25048092 BWI NORTH AMERICA C/O INTERLOAD FOR 210.0 kg 841590 AUTOMOTIVE PARTS
2025-08-07 GOLESNTG25051762 BWI NORTH AMERICA C/O INTERLOAD FOR 315.0 kg 841590 AUTOMOTIVE PARTS
2025-07-16 GOLESNTG25041807 BWI NORTH AMERICA C/O INTERLOAD FOR 315.0 kg 841590 AUTOMOTIVE PARTS
2025-06-28 GOLESNTG25038659 BWI NORTH AMERICA C/O INTERLOAD FOR 210.0 kg 841590 AUTOMOTIVE PARTS
2025-06-21 GOLESNTG25036045 BWI NORTH AMERICA C/O INTERLOAD FOR 436.0 kg 841590 AUTOMOTIVE PARTS
2025-05-18 GOLESNTG25025598 BWI NORTH AMERICA C/O INTERLOAD FOR 331.0 kg 841590 AUTOMOTIVE PARTS
2025-04-30 GOLESNTG25021436 BWI NORTH AMERICA C/O INTERLOAD FOR 331.0 kg 841590 AUTOMOTIVE PARTS
2025-04-03 GOLESNTG25013291 BWI NORTH AMERICA C/O INTERLOAD FOR 452.0 kg 911390 BANDS
2025-03-19 GOLESNTG25007088 BWI NORTH AMERICA C/O INTERLOAD FOR 557.0 kg 841590 AUTOMOTIVE PARTS
2025-03-04 GOLESNTG25003068 BWI NORTH AMERICA C/O INTERLOAD FOR 347.0 kg 841590 AUTOMOTIVE PARTS
2025-02-20 GOLESNTG25001033 BWI NORTH AMERICA C/O INTERLOAD FOR 331.0 kg 841590 AUTOMOTIVE PARTS
2025-02-02 GOLESNTG24092429 BWI NORTH AMERICA C/O INTERLOAD FOR 210.0 kg 841590 AUTOMOTIVE PARTS
2025-02-02 GOLESNTG24092430 BWI NORTH AMERICA C/O INTERLOAD FOR 121.0 kg 841590 AUTOMOTIVE PARTS
2025-02-02 GOLESNTG24091667 BWI INDIANA INC 262.0 kg 841590 AUTOMOTIVE PARTS
2024-09-20 GOLESNTG24054709 BWI INDIANA INC 337.0 kg 841590 AUTOMOTIVE PARTS
2024-09-12 GOLESNTG24056145 BWI NORTH AMERICA EL PASO 541.0 kg 841590 AUTOMOTIVE PARTS
2024-08-28 GOLESNTG24049907 BWI NORTH AMERICA EL PASO 121.0 kg 840999 AUTOPARTS
2024-08-28 GOLESNTG24050760 BWI NORTH AMERICA EL PASO 420.0 kg 840999 AUTOPARTS
2024-08-16 GOLESNTG24049488 BWI NORTH AMERICA EL PASO 420.0 kg 840999 AUTOPARTS
2024-08-13 GOLESNTG24045910 BWI NORTH AMERICA EL PASO 557.0 kg 841590 AUTOMOTIVE PARTS
2024-07-29 GOLESNTG24043569 BWI NORTH AMERICA EL PASO 436.0 kg 841590 AUTOMOTIVE PARTS
Contact information Request
to request contact information.
Other address
KLWATKA KROLEWSKA 132B
KLWATKA KROLEWSKA 132A
UL AKACJOWA 30